Showing default

COSMOS 2558, 53323

Orbit data source: Space-Track

COSMOS 2558, 53323 is a payload satellite owned by TS VS RF (CIS) in SSO that was launched on Mon, 01 Aug 2022 UTC via a SOYUZ-2-1V launch vehicle from the Plesetsk Missile And Space Complex (PKMTR). Payload-class satellites include a variety of spacecraft equipped with specific instruments for various scientific and technological missions. These include communications satellites like Starlink; space stations such as the ISS; scientific satellites like the Hubble; Earth observation satellites from companies like Planet Labs, Umbra, and HawkEye 360; GPS; miniature CubeSats for education and research; and military/defense satellites.

Loading next visibility...
Identifier
53323, 2022-089A
Orbit
SSO
Country
Flag of CISCIS
Related business
Manufacturer
Lavochkin
Mission
Operational Defense Technology
Bus & Motor
KARAT-200, Unknown motor
Mass
547 kg wet, ~400 kg dry
Launch date (UTC)
2022-08-01 (3 years ago)
Launch vehicle
SOYUZ-2-1V
Launch site
Plesetsk Missile And Space Complex (PKMTR)
Object type
Payload
Rocket body
Debris
Shape & HBR
Cyl + 2 Pan, 1.5 m
Radar Cross Section
3.727 m², Large (>1 m²)

Expand to show TLE details & history
Last TLE update: 3 days ago

TLE from 3 days ago
0 COSMOS 2558
1 53323U 22089A   25239.69201325  .00027469  00000-0  67522-3 0  9999
2 53323  97.2355 335.5014 0003661  53.6445 306.5139 15.40607854172213
Epoch: 2025-08-27T16:36Z
TLE epoch observation values (Epoch: 2025-08-27T16:36:29.944Z)
Latitude
-0.00006°
Longitude
110.21092°
Altitude
445.951 km
Speed
7.645 km/s
True Right ascension
22h 22m 00s
True Declination
0° 00' 00"
Sunlit
Object was in full shadow at epoch
Visualization orbit readout
Latitude
Unknown
Longitude
Unknown
Altitude
Unknown
Speed
Unknown
Apparent Right ascension
Unknown
Apparent Declination
Unknown
Sunlit
N/A
Visualization observer readout
Local Sidereal Time
09:14:56
Azimuth
Unknown
Elevation
Unknown
Doppler factor
Unknown
Orbital elements
Apogee altitude
443.742 km
Perigee altitude
438.749 km
Semi-major axis
6,819.382 km
Eccentricity
0.00037
Inclination
97.2355°
RAAN
335.5014°
Arg. of periapsis
53.6445°
True anomaly
306.48017°
Mean anomaly
306.5139°
Eccentric anomaly
306.49704°
Mean motion
3.85412 °/min
Orbital period
93.41 mins
BSTAR
0.00067522
Loading maneuver chart data...
Computing Atmospheric mass density...
Loading historical data...
Loading historical data...
Loading historical data...
Loading historical data...
Loading historical data...
Loading historical data...
Loading historical data...
Other satellites on launch #89 in the year 2022 (2022-08-01 UTC)

Documentation

Showing up to 5 results
|